Salida, CO

2:16 AM MDT on June 25, 2017 (GMT -0600)
Salida

Weather History for KANK - August, 2014

Change the Weather History Date:

Friday, August 15, 2014

  Actual Average (KGUC) Record (KGUC)
Temperature  
Mean Temperature 66 °F -  
Max Temperature 81 °F 74 °F 84 °F (2002)
Min Temperature 52 °F 42 °F 33 °F (2002)
Cooling Degree Days 2    
Growing Degree Days 16 (Base 50)    
Moisture  
Dew Point 46 °F    
Average Humidity 56    
Maximum Humidity 83    
Minimum Humidity 20    
Precipitation  
Precipitation 0.00 in - - ()
Sea Level Pressure  
Sea Level Pressure 30.39 in    
Wind  
Wind Speed 5 mph (West)    
Max Wind Speed 18 mph    
Max Gust Speed 33 mph    
Visibility 10 miles    
Events      
Averages and records for this station are not official NWS values.
T = Trace of Precipitation, MM = Missing Value Source: NWS Daily Summary

Daily Weather History Graph

Daily Weather History Graph

Search for Another Location

Airport or City:

Trip Planner

Search our weather history database for the weather conditions in past years. The results will help you decide how hot, cold, wet, or windy it might be!

Date:

Astronomy

Aug. 15, 2014 Rise Set
Actual Time 6:18 AM MDT 7:58 PM MDT
Civil Twilight 5:50 AM MDT 8:26 PM MDT
Nautical Twilight 5:15 AM MDT 9:00 PM MDT
Astronomical Twilight 4:39 AM MDT 9:36 PM MDT
Moon 11:07 PM MDT (8/15) 11:59 AM MDT (8/15)
Length of Visible Light 14h 36m
Length of Day
13h 39m
Waning Gibbous, 68% of the Moon is Illuminated
Aug 15
Waning Gibbous
Aug 17
Last Quarter
Aug 25
New
Sep 2
First Quarter
Sep 8
Full

Hourly Weather History & Observations

Time (MDT) Temp. Dew Point Humidity Pressure Visibility Wind Dir Wind Speed Gust Speed Precip Events Conditions
12:15 AM 58.6 °F 48.4 °F 69% 30.38 in 10.0 mi West 4.6 mph - N/A   Clear
12:35 AM 57.4 °F 48.2 °F 71% 30.38 in 10.0 mi West 6.9 mph - N/A   Clear
12:55 AM 57.9 °F 48.2 °F 70% 30.38 in 10.0 mi West 6.9 mph - N/A   Clear
1:15 AM 58.1 °F 49.5 °F 73% 30.38 in 10.0 mi West 4.6 mph - N/A   Clear
1:35 AM 57.9 °F 48.0 °F 70% 30.39 in 10.0 mi West 8.1 mph - N/A   Scattered Clouds
1:55 AM 56.7 °F 48.9 °F 75% 30.38 in 10.0 mi NW 6.9 mph - N/A   Scattered Clouds
2:15 AM 55.9 °F 48.2 °F 75% 30.38 in 10.0 mi WSW 10.4 mph - N/A   Clear
2:35 AM 56.1 °F 48.2 °F 75% 30.38 in 10.0 mi West 8.1 mph - N/A   Clear
2:55 AM 55.9 °F 48.2 °F 75% 30.39 in 10.0 mi West 5.8 mph - N/A   Clear
3:15 AM 57.9 °F 47.5 °F 68% 30.39 in 10.0 mi NNW 3.5 mph - N/A   Clear
3:35 AM 55.8 °F 48.0 °F 75% 30.39 in 10.0 mi WNW 4.6 mph - N/A   Clear
3:55 AM 55.6 °F 47.7 °F 75% 30.39 in 10.0 mi WSW 5.8 mph - N/A   Clear
4:15 AM 53.6 °F 47.3 °F 79% 30.39 in 10.0 mi WNW 5.8 mph - N/A   Clear
4:35 AM 53.1 °F 48.0 °F 83% 30.39 in 10.0 mi Calm Calm - N/A   Clear
4:55 AM 55.6 °F 47.5 °F 74% 30.39 in 10.0 mi West 4.6 mph - N/A   Clear
5:15 AM 53.1 °F 47.3 °F 81% 30.39 in 10.0 mi Calm Calm - N/A   Clear
5:35 AM 53.6 °F 47.3 °F 79% 30.39 in 10.0 mi WSW 3.5 mph - N/A   Clear
5:55 AM 54.7 °F 47.1 °F 76% 30.39 in 10.0 mi West 3.5 mph - N/A   Clear
6:15 AM 53.1 °F 46.9 °F 80% 30.39 in 10.0 mi WNW 6.9 mph - N/A   Clear
6:35 AM 52.2 °F 47.3 °F 83% 30.41 in 10.0 mi WSW 4.6 mph - N/A   Clear
6:55 AM 54.9 °F 47.5 °F 76% 30.42 in 10.0 mi WNW 4.6 mph - N/A   Clear
7:15 AM 55.6 °F 48.0 °F 76% 30.42 in 10.0 mi WSW 4.6 mph - N/A   Clear
7:35 AM 57.2 °F 48.4 °F 72% 30.42 in 10.0 mi Calm Calm - N/A   Clear
7:55 AM 58.1 °F 48.0 °F 69% 30.43 in 10.0 mi WNW 3.5 mph - N/A   Clear
8:15 AM 58.3 °F 47.8 °F 68% 30.43 in 10.0 mi WNW 4.6 mph - N/A   Clear
8:35 AM 59.5 °F 47.5 °F 64% 30.44 in 10.0 mi Calm Calm - N/A   Clear
8:55 AM 61.0 °F 48.6 °F 64% 30.44 in 10.0 mi Calm Calm - N/A   Clear
9:15 AM 63.0 °F 48.2 °F 59% 30.44 in 10.0 mi Calm Calm - N/A   Clear
9:35 AM 64.8 °F 48.4 °F 55% 30.44 in 10.0 mi Calm Calm - N/A   Clear
9:55 AM 67.5 °F 49.1 °F 52% 30.44 in 10.0 mi Calm Calm - N/A   Clear
10:15 AM 69.4 °F 51.3 °F 52% 30.44 in 10.0 mi Calm Calm - N/A   Clear
10:35 AM 70.3 °F 45.7 °F 41% 30.43 in 10.0 mi Calm Calm - N/A   Clear
10:55 AM 72.7 °F 45.0 °F 37% 30.42 in 10.0 mi Calm Calm - N/A   Clear
11:15 AM 73.8 °F 44.1 °F 34% 30.42 in 10.0 mi North 4.6 mph - N/A   Clear
11:35 AM 75.6 °F 42.3 °F 30% 30.41 in 10.0 mi East 4.6 mph - N/A   Clear
11:55 AM 76.5 °F 40.6 °F 28% 30.40 in 10.0 mi WNW 4.6 mph - N/A   Clear
12:15 PM 77.0 °F 40.8 °F 27% 30.39 in 10.0 mi Calm Calm - N/A   Clear
12:35 PM 77.7 °F 39.6 °F 25% 30.39 in 10.0 mi Calm Calm - N/A   Clear
12:55 PM 79.7 °F 40.1 °F 24% 30.38 in 10.0 mi SE 6.9 mph - N/A   Clear
1:15 PM 79.3 °F 36.9 °F 22% 30.37 in 10.0 mi South 5.8 mph - N/A   Clear
1:35 PM 81.0 °F 37.0 °F 21% 30.37 in 10.0 mi North 6.9 mph - N/A   Clear
2:15 PM 81.7 °F 37.0 °F 20% 30.35 in 10.0 mi NW 6.9 mph - N/A   Clear
2:35 PM 78.8 °F 39.2 °F 24% 30.35 in 10.0 mi WSW 8.1 mph - N/A   Clear
2:55 PM 71.8 °F 44.4 °F 37% 30.35 in 10.0 mi West 15.0 mph 20.7 mph N/A   Scattered Clouds
3:15 PM 70.0 °F 45.3 °F 41% 30.34 in 10.0 mi West 9.2 mph 19.6 mph N/A   Scattered Clouds
3:35 PM 78.3 °F 42.6 °F 28% 30.33 in 10.0 mi SW 11.5 mph - N/A   Clear
3:55 PM 80.1 °F 43.5 °F 27% 30.32 in 10.0 mi WSW 8.1 mph - N/A   Scattered Clouds
4:15 PM 79.9 °F 43.5 °F 28% 30.32 in 10.0 mi WSW 3.5 mph - N/A   Clear
4:35 PM 80.1 °F 39.6 °F 24% 30.31 in 10.0 mi Calm Calm - N/A   Clear
4:55 PM 80.2 °F 37.2 °F 21% 30.31 in 10.0 mi NNW 4.6 mph - N/A   Scattered Clouds
5:15 PM 78.8 °F 36.5 °F 22% 30.31 in 10.0 mi North 11.5 mph - N/A   Mostly Cloudy
5:35 PM 68.5 °F 46.2 °F 45% 30.35 in 5.0 mi SSW 18.4 mph 33.4 mph N/A   Overcast
5:55 PM 68.0 °F 51.6 °F 56% 30.36 in 10.0 mi West 5.8 mph - N/A   Overcast
6:15 PM 68.0 °F 54.7 °F 62% 30.35 in 10.0 mi SSE 8.1 mph - N/A   Mostly Cloudy
6:35 PM 70.5 °F 46.6 °F 42% 30.37 in 10.0 mi Calm Calm - N/A   Clear
6:55 PM 70.2 °F 49.1 °F 47% 30.37 in 10.0 mi SSE 3.5 mph - N/A   Clear
7:15 PM 68.5 °F 51.3 °F 54% 30.37 in 10.0 mi Calm Calm - N/A   Clear
7:35 PM 66.2 °F 52.5 °F 61% 30.37 in 10.0 mi Calm Calm - N/A   Clear
7:55 PM 64.8 °F 50.9 °F 61% 30.38 in 10.0 mi South 5.8 mph - N/A   Clear
8:15 PM 64.6 °F 50.5 °F 60% 30.38 in 10.0 mi WSW 6.9 mph - N/A   Clear
8:35 PM 61.0 °F 52.2 °F 73% 30.39 in 10.0 mi WSW 8.1 mph - N/A   Clear
8:55 PM 60.6 °F 49.8 °F 68% 30.40 in 10.0 mi South 6.9 mph - N/A   Clear
9:15 PM 61.7 °F 47.3 °F 59% 30.42 in 10.0 mi WSW 9.2 mph - N/A   Clear
9:35 PM 60.8 °F 47.1 °F 61% 30.42 in 10.0 mi WSW 8.1 mph - N/A   Clear
9:55 PM 60.1 °F 47.3 °F 63% 30.42 in 10.0 mi WSW 9.2 mph - N/A   Clear
10:15 PM 59.5 °F 46.9 °F 63% 30.44 in 10.0 mi West 8.1 mph - N/A   Clear
10:35 PM 57.6 °F 46.9 °F 68% 30.44 in 10.0 mi West 8.1 mph - N/A   Clear
10:55 PM 58.1 °F 46.6 °F 65% 30.44 in 10.0 mi SW 9.2 mph - N/A   Clear
11:15 PM 57.4 °F 46.4 °F 67% 30.44 in 10.0 mi WSW 8.1 mph - N/A   Clear
11:35 PM 56.5 °F 46.2 °F 68% 30.44 in 10.0 mi WSW 9.2 mph - N/A   Clear
11:55 PM 55.8 °F 46.0 °F 70% 30.44 in 10.0 mi WSW 8.1 mph - N/A   Clear